[[{"header":{"parameterUnit":"m.s-1","parameterCategory":1,"la1":30.2991,"la2":30.254,"lo1":-89.0895,"lo2":-89.0444,"dy":0.0017,"dx":0.0017,"nx":28,"ny":28,"refTime":"2024-07-30T03:00:00:Z","depth":0,"parameterNumber":2,"parameterNumberName":"U-component_of_WINDS"},"data":[0,0,0,0,0,0,0,0,0,0,0,0,0,0,0,0,0,0,0,0,0,0,0,0,0,0,0,0,0,0,0,0,0,0,0,0,0,0,0,0,0,0,0,0,0,0,0,0,0,0,0,0,0,0,0,0,0,0,1.426,1.4262,0,1.438,1.4382,1.4383,1.4421,1.442,1.442,1.4419,1.4547,1.4551,1.4555,0,0,0,0,0,0,0,0,0,0,0,0,0,1.407,1.4073,1.426,1.4262,1.4263,1.438,1.4382,1.4384,1.4421,1.442,1.442,1.4419,1.4546,1.4551,1.4555,0,0,0,0,0,0,0,0,0,0,0,0,0,1.4168,1.4075,1.426,1.4296,1.43,1.438,1.4382,1.4384,1.4421,1.442,1.4419,1.4419,1.4545,1.455,1.4556,1.461,0,0,1.4574,1.4577,0,0,0,0,0,0,0,0,1.4162,1.4175,1.4289,1.4294,1.4299,1.4385,1.4362,1.446,1.4421,1.4375,1.4419,1.4418,1.4494,1.4504,1.4529,1.4616,1.4622,1.4575,1.4578,1.4581,1.4583,0,0,0,0,0,0,0,1.4155,1.417,1.4308,1.4291,1.4297,1.4308,1.4321,1.4381,1.4439,1.4379,1.4382,1.4396,1.4497,1.4523,1.4532,1.4624,1.4575,1.458,1.4584,1.4586,1.4765,1.4766,0,0,0,0,0,0,1.4142,1.4164,1.4304,1.4312,1.4227,1.4312,1.4327,1.4358,1.4438,1.4449,1.4396,1.4397,1.4513,1.4525,1.4537,1.4607,1.4581,1.4586,1.459,1.4764,1.4765,1.4766,0,0,0,0,0,0,1.4137,1.4154,1.4299,1.4239,1.4258,1.4317,1.4351,1.4361,1.4387,1.4451,1.4462,1.4412,1.4513,1.4529,1.4592,1.4612,1.4589,1.4595,1.4762,1.4764,1.4766,1.4747,0,0,0,0,0,0,1.4132,1.4152,1.4171,1.4239,1.4261,1.435,1.4353,1.4364,1.4397,1.4399,1.4468,1.4479,1.4514,1.4583,1.4598,1.462,1.4599,1.4761,1.4763,1.4765,1.4746,1.4748,1.475,0,0,0,0,0,1.4125,1.4162,1.4172,1.4189,1.4286,1.4351,1.4364,1.4402,1.4398,1.4419,1.4461,1.4477,1.4607,1.4589,1.4606,1.463,1.476,1.4762,1.4765,1.4746,1.4748,1.475,0,0,0,0,0,0,1.4097,1.4171,1.4183,1.4243,1.429,1.4357,1.4385,1.4402,1.4453,1.4453,1.4499,1.4515,1.4575,1.4609,1.4588,1.4689,1.4685,1.4691,1.4664,1.4667,1.4668,1.4659,1.4604,0,0,0,0,0,1.4097,1.4142,1.4205,1.4252,1.4275,1.4326,1.4356,1.438,1.4432,1.4453,1.4499,1.455,1.4603,1.4637,1.4689,1.4752,1.4769,1.4777,1.4779,1.478,1.4785,1.4824,1.4828,1.4775,1.4775,1.4775,0,0,1.4099,1.4145,1.4171,1.4248,1.4287,1.4335,1.4343,1.4392,1.4429,1.4461,1.4524,1.4559,1.462,1.4684,1.4714,1.4714,1.4804,1.4783,1.4784,1.4788,1.4827,1.4832,1.4836,1.4777,1.4777,1.4776,0,0,1.4127,1.4165,1.4209,1.4249,1.4309,1.4343,1.4353,1.4418,1.4443,1.4506,1.4532,1.4578,1.4667,1.471,1.4743,1.4789,1.4807,1.4805,1.4815,1.4852,1.4856,1.486,1.4878,1.4884,1.481,1.481,1.481,0,1.4122,1.4192,1.423,1.4279,1.4313,1.4343,1.439,1.4427,1.4501,1.4525,1.4524,1.4638,1.4681,1.4756,1.4768,1.4793,1.4809,1.4798,1.4852,1.4856,1.486,1.4879,1.4885,1.481,1.481,1.481,1.481,0,1.4185,1.4234,1.4262,1.4332,1.437,1.4417,1.4464,1.4498,1.452,1.4555,1.4621,1.4674,1.4738,1.4758,1.478,1.4838,1.4836,1.4842,1.4839,1.4864,1.4882,1.4889,1.4809,1.4809,1.4809,1.4809,0,0,1.4197,1.4288,1.4298,1.4331,1.44,1.444,1.449,1.4551,1.4581,1.4632,1.4676,1.4752,1.4759,1.4797,1.4825,1.4858,1.4894,1.4861,1.4863,1.4866,1.4963,1.4958,1.4965,1.4906,1.4907,1.4908,1.4958,0,1.4235,1.4323,1.4359,1.4432,1.4479,1.451,1.4554,1.4603,1.4638,1.4685,1.4724,1.4777,1.4782,1.4805,1.4839,1.4882,1.4914,1.4879,1.495,1.4952,1.4934,1.4974,1.4969,1.5013,1.4965,1.4967,1.4967,0,1.429,1.434,1.4417,1.4482,1.4504,1.4542,1.4603,1.4646,1.4704,1.4727,1.477,1.4796,1.4853,1.4846,1.4926,1.4902,1.4933,1.4959,1.4962,1.4971,1.4961,1.4985,1.5028,1.5035,1.4978,1.4978,1.4977,0,1.4293,1.438,1.4438,1.4465,1.4542,1.4569,1.4603,1.4659,1.4694,1.4748,1.4772,1.4832,1.4866,1.4913,1.4956,1.4947,1.5033,1.5029,1.5056,1.5055,1.5073,1.5071,1.5122,1.5092,1.5091,1.5091,1.5091,0,1.4331,1.4378,1.444,1.4476,1.453,1.4573,1.4626,1.4662,1.4712,1.4757,1.4788,1.483,1.4884,1.4934,1.4969,1.5031,1.5046,1.5068,1.5077,1.5065,1.5063,1.5087,1.5086,1.5093,1.5093,1.5092,1.5092,0,1.4344,1.4387,1.4453,1.4521,1.4539,1.4576,1.4636,1.4673,1.4709,1.4766,1.4783,1.4841,1.4901,1.4949,1.5028,1.5052,1.5118,1.5127,1.5098,1.5103,1.5127,1.5125,1.5197,1.5209,1.5169,1.5169,1.5169,0,1.4366,1.4402,1.4474,1.4506,1.4539,1.459,1.4626,1.4671,1.4708,1.4777,1.4806,1.4869,1.4921,1.5017,1.5068,1.513,1.5141,1.5162,1.5151,1.5139,1.5144,1.5141,1.5146,1.5164,1.5164,1.5164,1.5164,0,1.4401,1.4421,1.4471,1.453,1.4572,1.462,1.467,1.4695,1.4749,1.4789,1.4851,1.4892,1.4973,1.5035,1.5102,1.514,1.5162,1.5168,1.5177,1.5167,1.5149,1.516,1.5103,1.5166,1.5166,1.5166,1.5165,1.5165,1.442,1.4454,1.4511,1.4566,1.4608,1.4654,1.4693,1.4734,1.4786,1.4854,1.4878,1.4942,1.5002,1.5094,1.5132,1.5185,1.5186,1.52,1.5204,1.5206,1.5206,1.514,1.5197,1.5197,1.5197,1.5197,1.5197,0,1.4458,1.4496,1.4546,1.4614,1.4659,1.4674,1.473,1.4767,1.4823,1.4875,1.4926,1.4998,1.506,1.5116,1.5181,1.5212,1.5224,1.5228,1.5226,1.5235,1.52,1.5186,1.5217,1.5217,1.5217,1.5217,1.5217,1.5217,1.4483,1.4542,1.457,1.4652,1.469,1.4752,1.4783,1.4827,1.4869,1.4947,1.4998,1.5034,1.5089,1.5158,1.5216,1.5232,1.5255,1.5256,1.5274,1.524,1.5237,1.5235,1.5222,1.526,1.526,1.5305,1.5305,1.5305]},{"header":{"parameterUnit":"m.s-1","parameterCategory":1,"la1":30.2991,"la2":30.254,"lo1":-89.0895,"lo2":-89.0444,"dy":0.0017,"dx":0.0017,"nx":28,"ny":28,"refTime":"2024-07-30T03:00:00:Z","depth":0,"parameterNumber":3,"parameterNumberName":"V-component_of_WINDS"},"data":[0,0,0,0,0,0,0,0,0,0,0,0,0,0,0,0,0,0,0,0,0,0,0,0,0,0,0,0,0,0,0,0,0,0,0,0,0,0,0,0,0,0,0,0,0,0,0,0,0,0,0,0,0,0,0,0,0,0,0.2968,0.2968,0,0.2983,0.2984,0.2984,0.2978,0.2977,0.2977,0.2976,0.2991,0.2992,0.2993,0,0,0,0,0,0,0,0,0,0,0,0,0,0.2929,0.293,0.2968,0.2968,0.2968,0.2983,0.2984,0.2984,0.2978,0.2977,0.2977,0.2976,0.2991,0.2992,0.2993,0,0,0,0,0,0,0,0,0,0,0,0,0,0.2945,0.293,0.2968,0.2967,0.2967,0.2983,0.2984,0.2984,0.2978,0.2977,0.2977,0.2976,0.2991,0.2992,0.2993,0.3011,0,0,0.2996,0.2997,0,0,0,0,0,0,0,0,0.2944,0.2947,0.2967,0.2967,0.2967,0.2978,0.2975,0.2993,0.2978,0.2974,0.2976,0.2976,0.2987,0.2989,0.2993,0.3011,0.3012,0.2997,0.2997,0.2998,0.2998,0,0,0,0,0,0,0,0.2943,0.2946,0.2974,0.2967,0.2967,0.2964,0.2966,0.2979,0.2983,0.2974,0.2974,0.2975,0.2987,0.2992,0.2993,0.3012,0.2996,0.2997,0.2998,0.2999,0.3041,0.3042,0,0,0,0,0,0,0.2942,0.2945,0.2974,0.2974,0.2954,0.2966,0.2968,0.2975,0.2983,0.2984,0.2976,0.2975,0.299,0.2992,0.2994,0.3012,0.2998,0.2999,0.2999,0.3041,0.3041,0.3042,0,0,0,0,0,0,0.2942,0.2945,0.2973,0.296,0.2963,0.2967,0.2975,0.2976,0.298,0.2985,0.2985,0.298,0.299,0.2992,0.3005,0.3013,0.2999,0.3,0.304,0.3041,0.3041,0.3051,0,0,0,0,0,0,0.2941,0.2945,0.2953,0.296,0.2964,0.2986,0.2976,0.2976,0.2982,0.2981,0.2989,0.2989,0.2989,0.3004,0.3007,0.3014,0.3001,0.304,0.304,0.3041,0.305,0.3052,0.3053,0,0,0,0,0,0.2939,0.2956,0.2954,0.2957,0.2974,0.2987,0.2989,0.2989,0.2983,0.299,0.2992,0.2989,0.3011,0.3005,0.3008,0.3016,0.3039,0.304,0.3041,0.3049,0.3052,0.3053,0,0,0,0,0,0,0.2951,0.2957,0.2954,0.2974,0.298,0.2986,0.2995,0.2992,0.3,0.2998,0.2998,0.2999,0.3013,0.3016,0.3009,0.3031,0.3024,0.3026,0.3029,0.3031,0.3033,0.3032,0.3002,0,0,0,0,0,0.2955,0.2966,0.297,0.2987,0.299,0.2992,0.2997,0.2996,0.3002,0.3005,0.3008,0.3013,0.3021,0.3026,0.3034,0.305,0.305,0.3056,0.3058,0.3059,0.3061,0.3066,0.3068,0.3045,0.3045,0.3045,0,0,0.2966,0.297,0.2977,0.2989,0.2994,0.3003,0.2994,0.3005,0.3011,0.3006,0.3019,0.3021,0.3026,0.304,0.3046,0.3043,0.3066,0.3061,0.3062,0.3062,0.3067,0.3069,0.3071,0.3046,0.3046,0.3046,0,0,0.2989,0.2994,0.3007,0.301,0.3016,0.3017,0.3019,0.3025,0.3026,0.3038,0.3033,0.3039,0.3054,0.3057,0.306,0.3078,0.3075,0.3081,0.309,0.3095,0.3097,0.3098,0.3103,0.3104,0.3082,0.3082,0.3082,0,0.3001,0.3015,0.3014,0.3024,0.3028,0.3022,0.3034,0.3037,0.3046,0.3048,0.3043,0.3058,0.3062,0.3074,0.3078,0.3082,0.3083,0.3081,0.3097,0.3098,0.3099,0.3104,0.3106,0.3083,0.3083,0.3082,0.3082,0,0.3028,0.3038,0.3047,0.3053,0.3058,0.3069,0.3068,0.3073,0.307,0.307,0.308,0.3083,0.309,0.3093,0.3091,0.3104,0.3101,0.3097,0.309,0.3102,0.3106,0.3108,0.3083,0.3083,0.3083,0.3083,0,0,0.3062,0.3064,0.3068,0.3069,0.3073,0.3079,0.3088,0.3094,0.3097,0.3101,0.3107,0.3117,0.3111,0.3115,0.3113,0.3117,0.3128,0.3112,0.3112,0.3114,0.3139,0.3142,0.3144,0.3125,0.3126,0.3126,0.3138,0,0.3084,0.31,0.3096,0.3112,0.3118,0.3111,0.3118,0.312,0.3119,0.3123,0.3122,0.3128,0.3122,0.3123,0.3127,0.3126,0.3133,0.3125,0.3129,0.313,0.3128,0.3147,0.3151,0.3163,0.314,0.314,0.314,0,0.3112,0.3116,0.3131,0.313,0.3133,0.314,0.3142,0.3147,0.3148,0.3147,0.3148,0.3144,0.315,0.3142,0.3149,0.3144,0.3145,0.3144,0.3144,0.3145,0.3136,0.3147,0.3167,0.3168,0.3143,0.3143,0.3143,0,0.3133,0.3142,0.3151,0.3153,0.3152,0.3156,0.3156,0.3156,0.3158,0.316,0.3161,0.3164,0.3165,0.3166,0.3162,0.3157,0.3168,0.316,0.3166,0.3166,0.3169,0.3169,0.3189,0.3171,0.3171,0.3171,0.3171,0,0.3157,0.3167,0.316,0.3166,0.3174,0.3169,0.3178,0.3177,0.3176,0.318,0.3173,0.3177,0.3171,0.3173,0.3169,0.3174,0.3175,0.3173,0.3172,0.3173,0.3173,0.3174,0.3173,0.3171,0.3171,0.3171,0.3171,0,0.3182,0.3179,0.3188,0.3185,0.3185,0.3191,0.3188,0.3192,0.3189,0.3194,0.3195,0.319,0.3192,0.3187,0.3189,0.3186,0.3192,0.319,0.3192,0.3191,0.3196,0.3196,0.3217,0.3219,0.32,0.32,0.32,0,0.3198,0.3205,0.3202,0.3204,0.3203,0.3207,0.3208,0.3202,0.3204,0.3202,0.3206,0.3207,0.3208,0.321,0.3206,0.3206,0.3204,0.3211,0.3204,0.3204,0.3202,0.3202,0.3201,0.3213,0.3213,0.3213,0.3213,0,0.3226,0.3222,0.3225,0.3225,0.3227,0.3227,0.3227,0.3229,0.3222,0.3223,0.3224,0.3225,0.3225,0.3225,0.3223,0.3222,0.3216,0.3215,0.3216,0.3218,0.3218,0.3217,0.3196,0.3215,0.3215,0.3215,0.3215,0.3215,0.3246,0.325,0.3247,0.3249,0.3248,0.3247,0.3249,0.3245,0.3247,0.3246,0.3242,0.3243,0.324,0.3237,0.3235,0.3235,0.3231,0.3233,0.3234,0.3234,0.3234,0.3218,0.3235,0.3235,0.3235,0.3235,0.3235,0,0.3271,0.3268,0.327,0.3269,0.3269,0.3263,0.3261,0.3262,0.3263,0.326,0.326,0.326,0.3259,0.3254,0.3252,0.3252,0.3249,0.3252,0.3252,0.3251,0.3239,0.3237,0.3254,0.3254,0.3254,0.3254,0.3254,0.3254,0.3285,0.329,0.3286,0.329,0.3286,0.3288,0.3287,0.3285,0.3282,0.3282,0.3281,0.3277,0.3272,0.3269,0.3267,0.3266,0.3265,0.3268,0.3265,0.3254,0.3252,0.325,0.3249,0.3268,0.3268,0.3277,0.3278,0.3278]}]]